Regional Weather Roundup
Issued by NWS

Home | Current Version | Previous Version | Graphics & Text | Print | Product List | Glossary On
Versions: 1 2 3 4 5 6 7 8 9 10 11 12 13 14 15 16 17 18 19 20 21 22 23 24 25 26 27 28 29 30 31 32 33 34 35 36 37 38 39 40 41 42 43 44 45 46 47 48 49 50
000
ASUS43 KTOP 040808
RWRKS

WEATHER ROUNDUP FOR KANSAS
NATIONAL WEATHER SERVICE GOODLAND KS
300 AM CDT WED MAY 04 2016

NOTE:  "FAIR" INDICATES FEW OR NO CLOUDS BELOW 12,000 FEET WITH NO
SIGNIFICANT WEATHER AND/OR OBSTRUCTIONS TO VISIBILITY.

KSZ001>006-013>018-027>032-041>047-040900-
NORTHWEST KANSAS

CITY           SKY/WX    TMP DP  RH WIND       PRES   REMARKS
GOODLAND       CLEAR     43  35  73 W12       30.15R
HAYS           CLEAR     45  36  70 NW6       30.05S
HILL CITY      CLEAR     47  41  80 W9        30.06F
RUSSELL        CLEAR     47  43  86 W9        30.01F
$$

KSZ061>065-074>080-084>089-040900-
SOUTHWEST KANSAS

CITY           SKY/WX    TMP DP  RH WIND       PRES   REMARKS
DODGE CITY     CLEAR     46  41  82 W10       30.09S
ELKHART          N/A     47  36  66 W7          N/A
GARDEN CITY    CLEAR     42  39  89 W9        30.11S
GREAT BEND     CLEAR     46  39  76 W9        30.04S
LIBERAL        CLEAR     45  37  76 W9        30.13F
PRATT          CLEAR     44  40  87 W8        30.04F
$$

KSZ066>073-081>083-090>101-040900-
SOUTHEAST KANSAS

CITY           SKY/WX    TMP DP  RH WIND       PRES   REMARKS
CHANUTE        CLEAR     54  45  71 W6        29.94F
COFFEYVILLE    CLEAR     55  45  68 W6        29.96F
HUTCHINSON     CLEAR     47  43  86 NW5       30.01F
MEDICINE LODGE   N/A     45  43  93 N3        30.04S
NEWTON         CLEAR     50  39  66 W7        30.00F
PARSONS        CLEAR     51  48  89 CALM      29.97F
WICHITA INTL   CLEAR     50  43  77 W7        29.99F
WICHITA JABRA  CLEAR     53  45  74 W9        29.98F
WICHITA MCCONL CLEAR     55  45  69 W3        29.99F
WINFIELD       CLEAR     50  45  83 W3        30.35F
$$

KSZ007>012-019>026-033>040-048>060-102>105-040900-
NORTHEAST KANSAS

CITY           SKY/WX    TMP DP  RH WIND       PRES   REMARKS
CONCORDIA      CLEAR     53  43  68 W13       29.95F
EMPORIA        CLEAR     54  44  69 W6        29.94F
LAWRENCE       CLEAR     47  45  93 NW6       29.88F
MANHATTAN      CLEAR     51  44  77 SW7       29.93F
MARYSVILLE     CLEAR     54  45  71 NW6       29.91F
OLATHE IND     CLEAR     54  45  71 SW8       29.89F
OLATHE EXE     CLEAR     54  44  69 W7        29.88F
SALINA         CLEAR     55  45  68 W9        29.98F
TOPEKA BILLARD CLEAR     54  45  71 W6        29.89F
TOPEKA FORBES  CLEAR     53  45  74 W6        29.89F
$$



USA.gov is the U.S. government's official web portal to all federal, state and local government web resources and services.